Weather History for Abilene, TX

Change the Weather History Date:

Sunday, March 3, 2013

  Actual Average Record
Temperature  
Mean Temperature 64 °F 53 °F  
Max Temperature 80 °F 65 °F 90 °F (1974)
Min Temperature 47 °F 41 °F 11 °F (1943)
Degree Days  
Heating Degree Days 1 13  
Month to date heating degree days 38 39  
Since 1 July heating degree days 1873 2172  
Cooling Degree Days 0 0  
Month to date cooling degree days 0 0  
Year to date cooling degree days 6 5  
Growing Degree Days 15 (Base 50)    
Moisture  
Dew Point 22 °F    
Average Humidity 30    
Maximum Humidity 49    
Minimum Humidity 10    
Precipitation  
Precipitation 0.00 in 0.05 in 1.42 in (1981)
Month to date precipitation 0.00 0.16  
Year to date precipitation 1.89 2.54  
Sea Level Pressure  
Sea Level Pressure 29.90 in    
Wind  
Wind Speed 18 mph (SSW)    
Max Wind Speed 30 mph    
Max Gust Speed 37 mph    
Visibility 10 miles    
Events      
T = Trace of Precipitation, MM = Missing Value Source: NWS Daily Summary

Daily Weather History Graph

Daily Weather History Graph

Search for Another Location

Airport:

Trip Planner

Search our weather history database for the weather conditions in past years. The results will help you decide how hot, cold, wet, or windy it might be!

Date:

Astronomy

Mar. 03, 2013 Rise Set
Actual Time 7:03 AM CST 6:38 PM CST
Civil Twilight 6:38 AM CST 7:02 PM CST
Nautical Twilight 6:10 AM CST 7:31 PM CST
Astronomical Twilight 5:42 AM CST 7:59 PM CST
Moon No Moon Rise 10:42 AM CST (3/3)
Length of Visible Light 12h 23m
Length of Day
11h 34m
Waning Gibbous, 63% of the Moon is Illuminated
Mar 3
Waning Gibbous
Mar 4
Last Quarter
Mar 11
New
Mar 19
First Quarter
Mar 27
Full

Hourly Weather History & Observations

Time (CST) Temp. Dew Point Humidity Pressure Visibility Wind Dir Wind Speed Gust Speed Precip Events Conditions
12:52 AM 48.0 °F 27.0 °F 44% 30.17 in 10.0 mi SSW 5.8 mph - N/A   Clear
1:52 AM 48.9 °F 27.0 °F 43% 30.15 in 10.0 mi SSW 8.1 mph - N/A   Clear
2:52 AM 51.1 °F 27.0 °F 39% 30.12 in 10.0 mi SSW 9.2 mph - N/A   Clear
3:52 AM 51.1 °F 26.1 °F 38% 30.09 in 10.0 mi SW 11.5 mph - N/A   Clear
6:52 AM 50.0 °F 25.0 °F 38% 30.08 in 10.0 mi SSW 12.7 mph - N/A   Clear
7:52 AM 52.0 °F 26.1 °F 37% 30.07 in 10.0 mi SW 11.5 mph - N/A   Clear
9:52 AM 61.0 °F 24.1 °F 24% 30.05 in 10.0 mi SSW 26.5 mph 31.1 mph N/A   Clear
10:52 AM 64.9 °F 23.0 °F 20% 30.00 in 10.0 mi SSW 20.7 mph 33.4 mph N/A   Clear
11:52 AM 68.0 °F 23.0 °F 18% 29.96 in 10.0 mi SSW 27.6 mph 35.7 mph N/A   Clear
12:52 PM 73.9 °F 21.9 °F 14% 29.92 in 10.0 mi SSW 25.3 mph 29.9 mph N/A   Clear
1:52 PM 75.9 °F 21.9 °F 13% 29.86 in 10.0 mi SSW 20.7 mph 29.9 mph N/A   Clear
2:52 PM 79.0 °F 19.9 °F 11% 29.81 in 10.0 mi SSW 23.0 mph 31.1 mph N/A   Clear
3:52 PM 79.0 °F 18.0 °F 10% 29.78 in 10.0 mi SSW 25.3 mph 36.8 mph N/A   Clear
4:52 PM 77.0 °F 18.0 °F 11% 29.75 in 10.0 mi SSW 20.7 mph 35.7 mph N/A   Clear
5:52 PM 73.9 °F 18.0 °F 12% 29.74 in 10.0 mi South 17.3 mph 26.5 mph N/A   Clear
6:52 PM 73.0 °F 17.1 °F 12% 29.73 in 10.0 mi South 21.9 mph 34.5 mph N/A   Clear
7:52 PM 70.0 °F 18.0 °F 14% 29.73 in 10.0 mi South 21.9 mph 29.9 mph N/A   Clear
8:52 PM 66.9 °F 18.0 °F 15% 29.73 in 10.0 mi South 17.3 mph 24.2 mph N/A   Clear
9:52 PM 66.0 °F 19.0 °F 17% 29.71 in 10.0 mi SSW 24.2 mph 33.4 mph N/A   Clear
11:52 PM 62.1 °F 19.9 °F 20% 29.69 in 10.0 mi SSW 20.7 mph 27.6 mph N/A   Clear